Time,TemperatureF,DewpointF,PressureIn,WindDirection,WindDirectionDegrees,WindSpeedMPH,WindSpeedGustMPH,Humidity,HourlyPrecipIn,Conditions,Clouds,dailyrainin,SoftwareType,DateUTC
2013-01-07 00:00:00,64.4,57.8,30.18,NW,315,3.4,3.4,79,0.00,,,60.49,VWS V14.01,2013-01-07 05:00:00,
2013-01-07 00:01:00,64.4,57.8,30.18,North,0,2.2,3.4,79,0.00,,,60.49,VWS V14.01,2013-01-07 05:01:00,
2013-01-07 00:06:00,64.4,57.8,30.18,NNW,338,2.9,2.9,79,0.00,,,60.49,VWS V14.01,2013-01-07 05:06:00,
2013-01-07 00:11:00,64.4,58.1,30.18,North,0,2.5,3.8,80,0.00,,,60.49,VWS V14.01,2013-01-07 05:11:00,
2013-01-07 00:16:00,64.4,58.1,30.18,NNW,338,4.0,4.0,80,0.00,,,60.49,VWS V14.01,2013-01-07 05:16:00,
2013-01-07 00:21:00,64.4,58.1,30.18,NNW,338,2.7,2.7,80,0.00,,,60.49,VWS V14.01,2013-01-07 05:21:00,
2013-01-07 00:26:00,64.4,58.1,30.18,NNE,22,0.9,2.5,80,0.00,,,60.49,VWS V14.01,2013-01-07 05:26:00,
2013-01-07 00:31:00,64.4,58.1,30.18,North,0,2.9,2.9,80,0.00,,,60.49,VWS V14.01,2013-01-07 05:31:00,
2013-01-07 00:36:00,64.4,57.8,30.18,NNE,22,0.9,2.2,79,0.00,,,60.49,VWS V14.01,2013-01-07 05:36:00,
2013-01-07 00:41:00,64.4,57.8,30.18,NNE,22,0.9,2.2,79,0.00,,,60.49,VWS V14.01,2013-01-07 05:41:00,
2013-01-07 00:46:00,64.4,57.8,30.18,NNW,338,0.0,1.6,79,0.00,,,60.49,VWS V14.01,2013-01-07 05:46:00,
2013-01-07 00:51:00,64.4,57.8,30.18,NNE,22,0.0,0.0,79,0.00,,,60.49,VWS V14.01,2013-01-07 05:51:00,
2013-01-07 00:56:00,64.4,57.8,30.18,NW,315,1.6,2.9,79,0.00,,,60.49,VWS V14.01,2013-01-07 05:56:00,
2013-01-07 01:02:00,64.4,57.8,30.18,NE,45,1.6,2.2,79,0.00,,,60.49,VWS V14.01,2013-01-07 06:02:00,
2013-01-07 01:07:00,64.4,57.8,30.18,NNE,22,2.2,2.2,79,0.00,,,60.49,VWS V14.01,2013-01-07 06:07:00,
2013-01-07 01:12:00,64.4,57.8,30.18,North,0,1.3,1.3,79,0.00,,,60.49,VWS V14.01,2013-01-07 06:12:00,
2013-01-07 01:17:00,64.4,58.1,30.18,NNE,22,1.3,2.9,80,0.00,,,60.49,VWS V14.01,2013-01-07 06:17:00,
2013-01-07 01:22:00,64.4,58.1,30.18,NNE,22,1.6,2.5,80,0.00,,,60.49,VWS V14.01,2013-01-07 06:22:00,
2013-01-07 01:27:00,64.6,58.3,30.18,WNW,292,1.1,4.7,80,0.00,,,60.49,VWS V14.01,2013-01-07 06:27:00,
2013-01-07 01:32:00,64.6,58.3,30.18,NNW,338,2.9,3.4,80,0.00,,,60.49,VWS V14.01,2013-01-07 06:32:00,
2013-01-07 01:37:00,64.6,58.3,30.18,NNE,22,6.0,6.0,80,0.00,,,60.49,VWS V14.01,2013-01-07 06:37:00,
2013-01-07 01:42:00,64.6,58.3,30.18,NNE,22,2.0,4.3,80,0.00,,,60.49,VWS V14.01,2013-01-07 06:42:00,
2013-01-07 01:47:00,64.6,58.3,30.18,NNW,338,4.9,4.9,80,0.00,,,60.49,VWS V14.01,2013-01-07 06:47:00,
2013-01-07 01:52:00,64.4,58.1,30.15,NNE,22,3.1,4.7,80,0.00,,,60.49,VWS V14.01,2013-01-07 06:52:00,
2013-01-07 01:57:00,64.4,58.1,30.15,North,0,6.5,6.5,80,0.00,,,60.49,VWS V14.01,2013-01-07 06:57:00,
2013-01-07 02:02:00,64.2,57.9,30.15,North,0,4.9,4.9,80,0.00,,,60.49,VWS V14.01,2013-01-07 07:02:00,
2013-01-07 02:07:00,64.2,57.9,30.15,North,0,4.9,7.8,80,0.00,,,60.49,VWS V14.01,2013-01-07 07:07:00,
2013-01-07 02:12:00,64.0,57.8,30.15,NNW,338,4.7,4.7,80,0.00,,,60.49,VWS V14.01,2013-01-07 07:12:00,
2013-01-07 02:17:00,63.9,57.6,30.15,NNE,22,5.4,5.4,80,0.00,,,60.49,VWS V14.01,2013-01-07 07:17:00,
2013-01-07 02:22:00,63.9,57.6,30.18,WNW,292,2.7,2.7,80,0.00,,,60.49,VWS V14.01,2013-01-07 07:22:00,
2013-01-07 02:27:00,63.9,57.6,30.18,NNE,22,1.6,3.1,80,0.00,,,60.49,VWS V14.01,2013-01-07 07:27:00,
2013-01-07 02:32:00,63.7,57.4,30.18,NNE,22,3.6,5.8,80,0.00,,,60.49,VWS V14.01,2013-01-07 07:32:00,
2013-01-07 02:37:00,63.5,57.2,30.18,NNE,22,3.1,3.1,80,0.00,,,60.49,VWS V14.01,2013-01-07 07:37:00,
2013-01-07 02:42:00,63.5,57.2,30.15,North,0,3.8,3.8,80,0.00,,,60.49,VWS V14.01,2013-01-07 07:42:00,
2013-01-07 02:47:00,63.5,57.2,30.15,NNE,22,3.6,3.6,80,0.00,,,60.49,VWS V14.01,2013-01-07 07:47:00,
2013-01-07 02:52:00,63.5,57.2,30.18,NNE,22,4.7,4.7,80,0.00,,,60.49,VWS V14.01,2013-01-07 07:52:00,
2013-01-07 02:57:00,63.5,57.2,30.18,NE,45,4.0,4.0,80,0.00,,,60.49,VWS V14.01,2013-01-07 07:57:00,
2013-01-07 03:02:00,63.3,57.0,30.18,North,0,3.4,3.4,80,0.00,,,60.49,VWS V14.01,2013-01-07 08:02:00,
2013-01-07 03:07:00,63.3,57.0,30.15,NNE,22,3.8,9.8,80,0.00,,,60.49,VWS V14.01,2013-01-07 08:07:00,
2013-01-07 03:12:00,63.3,57.0,30.15,North,0,2.9,6.0,80,0.00,,,60.49,VWS V14.01,2013-01-07 08:12:00,
2013-01-07 03:17:00,63.3,57.0,30.15,West,270,3.1,3.6,80,0.00,,,60.49,VWS V14.01,2013-01-07 08:17:00,
2013-01-07 03:22:00,63.1,56.9,30.18,North,0,4.3,4.3,80,0.00,,,60.49,VWS V14.01,2013-01-07 08:22:00,
2013-01-07 03:27:00,63.1,56.5,30.18,NNE,22,2.9,2.9,79,0.00,,,60.49,VWS V14.01,2013-01-07 08:27:00,
2013-01-07 03:32:00,63.0,56.3,30.18,North,0,4.0,6.0,79,0.00,,,60.49,VWS V14.01,2013-01-07 08:32:00,
2013-01-07 03:37:00,62.8,56.2,30.18,ENE,68,4.7,4.7,79,0.00,,,60.49,VWS V14.01,2013-01-07 08:37:00,
2013-01-07 03:42:00,62.8,56.2,30.18,North,0,2.9,4.3,79,0.00,,,60.49,VWS V14.01,2013-01-07 08:42:00,
2013-01-07 03:47:00,62.8,56.2,30.18,NNE,22,3.6,4.7,79,0.00,,,60.49,VWS V14.01,2013-01-07 08:47:00,
2013-01-07 03:52:00,62.8,56.2,30.18,NNE,22,4.9,4.9,79,0.00,,,60.49,VWS V14.01,2013-01-07 08:52:00,
2013-01-07 03:57:00,62.8,56.2,30.18,NNE,22,3.4,4.0,79,0.00,,,60.49,VWS V14.01,2013-01-07 08:57:00,
2013-01-07 04:02:00,62.8,56.2,30.18,NNE,22,2.5,4.3,79,0.00,,,60.49,VWS V14.01,2013-01-07 09:02:00,
2013-01-07 04:07:00,62.8,56.2,30.18,NNW,338,5.6,5.6,79,0.00,,,60.49,VWS V14.01,2013-01-07 09:07:00,
2013-01-07 04:12:00,62.6,56.0,30.18,NNW,338,3.4,3.4,79,0.00,,,60.49,VWS V14.01,2013-01-07 09:12:00,
2013-01-07 04:17:00,62.6,56.0,30.18,NNE,22,0.9,1.3,79,0.00,,,60.49,VWS V14.01,2013-01-07 09:17:00,
2013-01-07 04:22:00,62.6,56.0,30.18,NE,45,3.8,3.8,79,0.00,,,60.49,VWS V14.01,2013-01-07 09:22:00,
2013-01-07 04:27:00,62.4,55.8,30.18,NNW,338,3.4,7.4,79,0.00,,,60.49,VWS V14.01,2013-01-07 09:27:00,
2013-01-07 04:32:00,62.4,55.8,30.18,NNE,22,5.8,5.8,79,0.00,,,60.49,VWS V14.01,2013-01-07 09:32:00,
2013-01-07 04:37:00,62.4,55.8,30.18,NW,315,5.4,5.8,79,0.00,,,60.49,VWS V14.01,2013-01-07 09:37:00,
2013-01-07 04:42:00,62.2,55.3,30.18,North,0,3.8,4.9,78,0.00,,,60.49,VWS V14.01,2013-01-07 09:42:00,
2013-01-07 04:47:00,62.2,55.3,30.18,NNE,22,2.7,2.7,78,0.00,,,60.49,VWS V14.01,2013-01-07 09:47:00,
2013-01-07 04:52:00,62.2,55.3,30.18,North,0,3.8,3.8,78,0.00,,,60.49,VWS V14.01,2013-01-07 09:52:00,
2013-01-07 04:57:00,62.1,55.1,30.18,North,0,4.0,4.0,78,0.00,,,60.49,VWS V14.01,2013-01-07 09:57:00,
2013-01-07 05:02:00,61.9,55.0,30.18,North,0,4.9,5.4,78,0.00,,,60.49,VWS V14.01,2013-01-07 10:02:00,
2013-01-07 05:07:00,61.9,55.0,30.18,North,0,6.0,6.0,78,0.00,,,60.49,VWS V14.01,2013-01-07 10:07:00,
2013-01-07 05:12:00,61.7,54.8,30.18,NNE,22,4.9,5.4,78,0.00,,,60.49,VWS V14.01,2013-01-07 10:12:00,
2013-01-07 05:17:00,61.5,54.2,30.18,North,0,2.9,3.4,77,0.00,,,0.00,VWS V14.01,2013-01-07 10:17:00,
2013-01-07 05:22:00,61.3,54.1,30.21,NNE,22,4.3,4.3,77,0.00,,,60.49,VWS V14.01,2013-01-07 10:22:00,
2013-01-07 05:27:00,61.3,53.7,30.21,North,0,6.5,6.5,76,0.00,,,60.49,VWS V14.01,2013-01-07 10:27:00,
2013-01-07 05:32:00,61.2,53.5,30.21,North,0,5.6,5.6,76,0.00,,,60.49,VWS V14.01,2013-01-07 10:32:00,
2013-01-07 05:38:00,61.2,53.5,30.18,NNE,22,4.5,5.4,76,0.00,,,60.49,VWS V14.01,2013-01-07 10:38:00,
2013-01-07 05:43:00,61.2,53.5,30.18,NNE,22,4.3,6.5,76,0.00,,,60.49,VWS V14.01,2013-01-07 10:43:00,
2013-01-07 05:48:00,61.2,53.5,30.18,North,0,6.0,6.0,76,0.00,,,60.49,VWS V14.01,2013-01-07 10:48:00,
2013-01-07 05:53:00,61.2,53.2,30.21,NNE,22,5.4,5.6,75,0.00,,,60.49,VWS V14.01,2013-01-07 10:53:00,
2013-01-07 05:58:00,61.2,52.8,30.21,NNE,22,2.5,3.6,74,0.00,,,60.49,VWS V14.01,2013-01-07 10:58:00,
2013-01-07 06:03:00,61.3,53.0,30.21,NNE,22,6.7,6.7,74,0.00,,,60.49,VWS V14.01,2013-01-07 11:03:00,
2013-01-07 06:08:00,61.3,53.0,30.21,ENE,68,3.8,3.8,74,0.00,,,60.49,VWS V14.01,2013-01-07 11:08:00,
2013-01-07 06:13:00,61.2,52.1,30.21,NNE,22,4.9,6.3,72,0.00,,,60.49,VWS V14.01,2013-01-07 11:13:00,
2013-01-07 06:18:00,61.3,52.2,30.21,NNE,22,2.5,5.6,72,0.00,,,60.49,VWS V14.01,2013-01-07 11:18:00,
2013-01-07 06:23:00,61.3,51.9,30.21,WNW,292,3.6,6.3,71,0.00,,,60.49,VWS V14.01,2013-01-07 11:23:00,
2013-01-07 06:28:00,61.3,51.5,30.21,NNE,22,3.6,4.3,70,0.00,,,60.49,VWS V14.01,2013-01-07 11:28:00,
2013-01-07 06:33:00,61.3,50.7,30.21,NNE,22,2.0,3.1,68,0.00,,,60.49,VWS V14.01,2013-01-07 11:33:00,
2013-01-07 06:38:00,61.2,48.9,30.21,NNE,22,5.6,13.0,64,0.00,,,60.49,VWS V14.01,2013-01-07 11:38:00,
2013-01-07 06:43:00,61.2,48.0,30.21,NNE,22,9.4,9.4,62,0.00,,,60.49,VWS V14.01,2013-01-07 11:43:00,
2013-01-07 06:48:00,61.2,48.0,30.21,NNE,22,4.3,8.5,62,0.00,,,60.49,VWS V14.01,2013-01-07 11:48:00,
2013-01-07 06:53:00,61.0,47.9,30.21,NNW,338,5.4,8.1,62,0.00,,,60.49,VWS V14.01,2013-01-07 11:53:00,
2013-01-07 06:58:00,60.8,47.3,30.21,NNW,338,10.3,10.3,61,0.00,,,60.49,VWS V14.01,2013-01-07 11:58:00,
2013-01-07 07:03:00,60.6,47.1,30.21,North,0,7.4,12.8,61,0.00,,,60.49,VWS V14.01,2013-01-07 12:03:00,
2013-01-07 07:08:00,60.4,46.9,30.21,North,0,7.6,9.6,61,0.00,,,60.49,VWS V14.01,2013-01-07 12:08:00,
2013-01-07 07:13:00,60.3,46.8,30.21,North,0,8.7,12.8,61,0.00,,,60.49,VWS V14.01,2013-01-07 12:13:00,
2013-01-07 07:18:00,60.1,46.2,30.21,North,0,5.8,5.8,60,0.00,,,60.49,VWS V14.01,2013-01-07 12:18:00,
2013-01-07 07:23:00,60.1,45.7,30.18,NNE,22,6.5,8.1,59,0.00,,,60.49,VWS V14.01,2013-01-07 12:23:00,
2013-01-07 07:28:00,60.1,44.8,30.18,ENE,68,2.9,7.8,57,0.00,,,60.49,VWS V14.01,2013-01-07 12:28:00,
2013-01-07 07:33:00,59.9,44.7,30.18,North,0,9.6,9.6,57,0.00,,,60.49,VWS V14.01,2013-01-07 12:33:00,
2013-01-07 07:38:00,59.7,43.5,30.18,NNE,22,6.3,6.3,55,0.00,,,60.49,VWS V14.01,2013-01-07 12:38:00,
2013-01-07 07:43:00,59.7,43.1,30.18,NNE,22,8.7,8.7,54,0.00,,,60.49,VWS V14.01,2013-01-07 12:43:00,
2013-01-07 07:48:00,59.7,43.1,30.18,NNE,22,3.8,3.8,54,0.00,,,60.49,VWS V14.01,2013-01-07 12:48:00,
2013-01-07 07:53:00,59.7,43.1,30.21,North,0,5.6,8.1,54,0.00,,,60.49,VWS V14.01,2013-01-07 12:53:00,
2013-01-07 07:58:00,59.7,42.6,30.21,ENE,68,3.8,3.8,53,0.00,,,60.49,VWS V14.01,2013-01-07 12:58:00,
2013-01-07 08:03:00,59.5,40.9,30.21,NNE,22,4.9,10.5,50,0.00,,,60.49,VWS V14.01,2013-01-07 13:03:00,
2013-01-07 08:08:00,59.4,39.7,30.21,North,0,3.4,6.5,48,0.00,,,60.49,VWS V14.01,2013-01-07 13:08:00,
2013-01-07 08:13:00,59.4,39.2,30.21,NNE,22,6.5,7.8,47,0.00,,,60.49,VWS V14.01,2013-01-07 13:13:00,
2013-01-07 08:18:00,59.2,37.9,30.21,NNE,22,4.0,5.8,45,0.00,,,60.49,VWS V14.01,2013-01-07 13:18:00,
2013-01-07 08:23:00,59.0,38.3,30.21,NNE,22,5.4,8.5,46,0.00,,,60.49,VWS V14.01,2013-01-07 13:23:00,
2013-01-07 08:28:00,58.8,38.1,30.21,NNE,22,6.5,8.5,46,0.00,,,60.49,VWS V14.01,2013-01-07 13:28:00,
2013-01-07 08:33:00,58.8,38.7,30.21,NNE,22,8.1,515.8,47,0.00,,,60.49,VWS V14.01,2013-01-07 13:33:00,
2013-01-07 08:38:00,58.8,38.1,30.24,North,0,6.3,6.3,46,0.00,,,60.49,VWS V14.01,2013-01-07 13:38:00,
2013-01-07 08:43:00,58.8,38.1,30.24,NNE,22,4.0,4.0,46,0.00,,,60.49,VWS V14.01,2013-01-07 13:43:00,
2013-01-07 08:48:00,58.8,38.1,30.24,NE,45,11.0,11.0,46,0.00,,,60.49,VWS V14.01,2013-01-07 13:48:00,
2013-01-07 08:53:00,58.8,37.5,30.24,NNE,22,4.0,6.0,45,0.00,,,60.49,VWS V14.01,2013-01-07 13:53:00,
2013-01-07 08:58:00,58.8,37.5,30.24,NNE,22,8.7,8.7,45,0.00,,,60.49,VWS V14.01,2013-01-07 13:58:00,
2013-01-07 09:03:00,58.8,37.0,30.24,NNE,22,4.0,4.7,44,0.00,,,60.49,VWS V14.01,2013-01-07 14:03:00,
2013-01-07 09:08:00,59.2,36.1,30.24,ENE,68,3.8,6.0,42,0.00,,,60.49,VWS V14.01,2013-01-07 14:08:00,
2013-01-07 09:13:00,59.5,36.5,30.24,NE,45,6.5,6.5,42,0.00,,,60.49,VWS V14.01,2013-01-07 14:13:00,
2013-01-07 09:18:00,60.4,34.7,30.24,NNE,22,8.1,8.1,38,0.00,,,60.49,VWS V14.01,2013-01-07 14:18:00,
2013-01-07 09:23:00,60.8,33.7,30.27,ENE,68,10.5,10.5,36,0.00,,,60.49,VWS V14.01,2013-01-07 14:23:00,
2013-01-07 09:28:00,60.8,33.0,30.27,NNE,22,6.0,7.4,35,0.00,,,60.49,VWS V14.01,2013-01-07 14:28:00,
2013-01-07 09:33:00,60.8,33.0,30.27,NNE,22,8.1,11.0,35,0.00,,,60.49,VWS V14.01,2013-01-07 14:33:00,
2013-01-07 09:38:00,61.5,33.6,30.27,NNE,22,5.8,7.2,35,0.00,,,60.49,VWS V14.01,2013-01-07 14:38:00,
2013-01-07 09:44:00,61.9,34.0,30.27,NNE,22,4.9,6.0,35,0.00,,,60.49,VWS V14.01,2013-01-07 14:44:00,
2013-01-07 09:49:00,61.2,32.6,30.27,NNE,22,8.5,11.9,34,0.00,,,60.49,VWS V14.01,2013-01-07 14:49:00,
2013-01-07 09:54:00,61.0,33.2,30.27,NNE,22,6.3,10.7,35,0.00,,,60.49,VWS V14.01,2013-01-07 14:54:00,
2013-01-07 09:59:00,61.0,33.2,30.27,North,0,9.6,10.1,35,0.00,,,60.49,VWS V14.01,2013-01-07 14:59:00,
2013-01-07 10:04:00,61.2,33.3,30.27,NE,45,5.8,10.5,35,0.00,,,60.49,VWS V14.01,2013-01-07 15:04:00,
2013-01-07 10:09:00,61.3,33.5,30.27,ENE,68,8.1,8.5,35,0.00,,,60.49,VWS V14.01,2013-01-07 15:09:00,
2013-01-07 10:14:00,61.3,33.5,30.27,North,0,8.5,8.5,35,0.00,,,60.49,VWS V14.01,2013-01-07 15:14:00,
2013-01-07 10:19:00,61.3,33.5,30.27,NNE,22,8.7,10.5,35,0.00,,,60.49,VWS V14.01,2013-01-07 15:19:00,
2013-01-07 10:24:00,61.7,33.8,30.27,ENE,68,7.8,10.1,35,0.00,,,60.49,VWS V14.01,2013-01-07 15:24:00,
2013-01-07 10:29:00,62.2,35.0,30.27,NNE,22,3.4,5.6,36,0.00,,,60.49,VWS V14.01,2013-01-07 15:29:00,
2013-01-07 10:34:00,62.4,34.4,30.27,ENE,68,7.4,8.1,35,0.00,,,60.49,VWS V14.01,2013-01-07 15:34:00,
2013-01-07 10:39:00,62.2,34.3,30.27,NNE,22,4.0,5.4,35,0.00,,,60.49,VWS V14.01,2013-01-07 15:39:00,
2013-01-07 10:44:00,62.2,34.3,30.27,NNE,22,10.1,10.3,35,0.00,,,60.49,VWS V14.01,2013-01-07 15:44:00,
2013-01-07 10:49:00,62.1,34.1,30.27,NNE,22,9.8,12.5,35,0.00,,,60.49,VWS V14.01,2013-01-07 15:49:00,
2013-01-07 10:54:00,62.1,34.1,30.27,ENE,68,6.3,10.3,35,0.00,,,60.49,VWS V14.01,2013-01-07 15:54:00,
2013-01-07 10:59:00,62.4,34.4,30.27,NNE,22,7.6,10.7,35,0.00,,,60.49,VWS V14.01,2013-01-07 15:59:00,
2013-01-07 11:04:00,62.8,34.0,30.27,ENE,68,10.5,10.5,34,0.00,,,60.49,VWS V14.01,2013-01-07 16:04:00,
2013-01-07 11:09:00,63.5,34.7,30.24,East,90,5.6,7.8,34,0.00,,,60.49,VWS V14.01,2013-01-07 16:09:00,
2013-01-07 11:14:00,64.0,35.1,30.24,ENE,68,10.5,11.4,34,0.00,,,60.49,VWS V14.01,2013-01-07 16:14:00,
2013-01-07 11:19:00,64.8,35.0,30.24,ENE,68,7.4,7.4,33,0.00,,,60.49,VWS V14.01,2013-01-07 16:19:00,
2013-01-07 11:24:00,66.2,35.5,30.21,NNE,22,5.6,7.2,32,0.00,,,60.49,VWS V14.01,2013-01-07 16:24:00,
2013-01-07 11:29:00,66.7,34.3,30.21,ENE,68,8.1,8.1,30,0.00,,,60.49,VWS V14.01,2013-01-07 16:29:00,
2013-01-07 11:34:00,66.4,33.2,30.21,ENE,68,8.5,8.5,29,0.00,,,60.49,VWS V14.01,2013-01-07 16:34:00,
2013-01-07 11:39:00,66.0,34.5,30.21,NE,45,7.4,7.4,31,0.00,,,60.49,VWS V14.01,2013-01-07 16:39:00,
2013-01-07 11:44:00,66.2,34.7,30.21,NNE,22,2.9,5.4,31,0.00,,,60.49,VWS V14.01,2013-01-07 16:44:00,
2013-01-07 11:49:00,66.6,35.0,30.21,ENE,68,5.6,5.6,31,0.00,,,60.49,VWS V14.01,2013-01-07 16:49:00,
2013-01-07 11:54:00,66.2,35.5,30.21,ENE,68,3.4,5.6,32,0.00,,,60.49,VWS V14.01,2013-01-07 16:54:00,
2013-01-07 11:59:00,66.0,36.1,30.21,NNE,22,4.3,4.3,33,0.00,,,60.49,VWS V14.01,2013-01-07 16:59:00,
2013-01-07 12:04:00,65.7,35.8,30.18,ENE,68,3.6,7.4,33,0.00,,,60.49,VWS V14.01,2013-01-07 17:04:00,
2013-01-07 12:09:00,66.0,36.1,30.18,ENE,68,3.6,5.4,33,0.00,,,60.49,VWS V14.01,2013-01-07 17:09:00,
2013-01-07 12:14:00,66.2,36.3,30.18,NNE,22,4.9,5.6,33,0.00,,,60.49,VWS V14.01,2013-01-07 17:14:00,
2013-01-07 12:19:00,66.2,36.3,30.18,ENE,68,6.5,9.6,33,0.00,,,60.49,VWS V14.01,2013-01-07 17:19:00,
2013-01-07 12:24:00,66.2,36.3,30.18,ENE,68,5.4,6.3,33,0.00,,,60.49,VWS V14.01,2013-01-07 17:24:00,
2013-01-07 12:29:00,66.4,36.4,30.18,ENE,68,2.7,7.4,33,0.00,,,60.49,VWS V14.01,2013-01-07 17:29:00,
2013-01-07 12:35:00,66.6,36.6,30.21,ENE,68,2.5,4.0,33,0.00,,,60.49,VWS V14.01,2013-01-07 17:35:00,
2013-01-07 12:40:00,66.6,36.6,30.21,ENE,68,6.0,7.4,33,0.00,,,60.49,VWS V14.01,2013-01-07 17:40:00,
2013-01-07 12:45:00,66.2,36.3,30.21,ENE,68,3.4,4.9,33,0.00,,,60.49,VWS V14.01,2013-01-07 17:45:00,
2013-01-07 12:50:00,66.2,36.3,30.21,ENE,68,4.0,4.9,33,0.00,,,60.49,VWS V14.01,2013-01-07 17:50:00,
2013-01-07 12:55:00,66.2,36.3,30.21,ENE,68,4.9,7.2,33,0.00,,,60.49,VWS V14.01,2013-01-07 17:55:00,
2013-01-07 13:00:00,66.0,36.9,30.21,ENE,68,6.5,8.7,34,0.00,,,60.49,VWS V14.01,2013-01-07 18:00:00,
2013-01-07 13:05:00,66.2,36.3,30.21,NE,45,4.0,5.8,33,0.00,,,60.49,VWS V14.01,2013-01-07 18:05:00,
2013-01-07 13:10:00,66.7,36.8,30.21,ENE,68,3.1,8.1,33,0.00,,,60.49,VWS V14.01,2013-01-07 18:10:00,
2013-01-07 13:15:00,67.1,37.1,30.21,NE,45,2.5,2.5,33,0.00,,,60.49,VWS V14.01,2013-01-07 18:15:00,
2013-01-07 13:20:00,67.3,37.2,30.21,ENE,68,3.1,7.2,33,0.00,,,60.49,VWS V14.01,2013-01-07 18:20:00,
2013-01-07 13:25:00,67.1,37.1,30.21,ENE,68,6.5,7.2,33,0.00,,,60.49,VWS V14.01,2013-01-07 18:25:00,
2013-01-07 13:30:00,67.6,37.5,30.21,ENE,68,4.9,6.0,33,0.00,,,60.49,VWS V14.01,2013-01-07 18:30:00,
2013-01-07 13:35:00,68.2,37.2,30.18,East,90,3.1,6.0,32,0.00,,,60.49,VWS V14.01,2013-01-07 18:35:00,
2013-01-07 13:40:00,68.4,37.4,30.18,ENE,68,8.5,8.5,32,0.00,,,60.49,VWS V14.01,2013-01-07 18:40:00,
2013-01-07 13:45:00,68.2,36.4,30.18,ENE,68,5.8,6.3,31,0.00,,,60.49,VWS V14.01,2013-01-07 18:45:00,
2013-01-07 13:50:00,68.2,37.2,30.18,ENE,68,5.4,5.4,32,0.00,,,60.49,VWS V14.01,2013-01-07 18:50:00,
2013-01-07 13:55:00,68.5,37.5,30.18,ENE,68,4.7,4.7,32,0.00,,,60.49,VWS V14.01,2013-01-07 18:55:00,
2013-01-07 14:00:00,68.5,36.7,30.18,East,90,6.3,6.3,31,0.00,,,60.49,VWS V14.01,2013-01-07 19:00:00,
2013-01-07 14:05:00,68.5,35.9,30.18,NNE,22,5.4,8.1,30,0.00,,,60.49,VWS V14.01,2013-01-07 19:05:00,
2013-01-07 14:10:00,68.9,37.0,30.18,NNE,22,5.4,5.6,31,0.00,,,60.49,VWS V14.01,2013-01-07 19:10:00,
2013-01-07 14:15:00,69.3,38.2,30.18,NNE,22,3.6,3.8,32,0.00,,,60.49,VWS V14.01,2013-01-07 19:15:00,
2013-01-07 14:20:00,69.3,36.5,30.18,NNE,22,6.0,6.0,30,0.00,,,60.49,VWS V14.01,2013-01-07 19:20:00,
2013-01-07 14:25:00,69.4,35.8,30.18,NNE,22,4.7,6.0,29,0.00,,,60.49,VWS V14.01,2013-01-07 19:25:00,
2013-01-07 14:30:00,69.3,35.7,30.18,ENE,68,10.1,10.1,29,0.00,,,60.49,VWS V14.01,2013-01-07 19:30:00,
2013-01-07 14:35:00,69.4,35.8,30.18,NNE,22,4.3,9.6,29,0.00,,,60.49,VWS V14.01,2013-01-07 19:35:00,
2013-01-07 14:40:00,69.3,35.7,30.18,NNE,22,4.3,5.8,29,0.00,,,60.49,VWS V14.01,2013-01-07 19:40:00,
2013-01-07 14:45:00,69.4,35.8,30.18,ENE,68,6.3,6.3,29,0.00,,,60.49,VWS V14.01,2013-01-07 19:45:00,
2013-01-07 14:50:00,69.4,35.8,30.18,NNE,22,2.9,6.3,29,0.00,,,60.49,VWS V14.01,2013-01-07 19:50:00,
2013-01-07 14:55:00,69.4,35.8,30.18,NE,45,3.6,3.6,29,0.00,,,60.49,VWS V14.01,2013-01-07 19:55:00,
2013-01-07 15:00:00,69.6,35.1,30.18,NNE,22,4.5,7.4,28,0.00,,,60.49,VWS V14.01,2013-01-07 20:00:00,
2013-01-07 15:05:00,70.0,33.5,30.18,NE,45,4.3,4.3,26,0.00,,,60.49,VWS V14.01,2013-01-07 20:05:00,
2013-01-07 15:10:00,70.2,33.7,30.18,NNE,22,3.1,7.6,26,0.00,,,60.49,VWS V14.01,2013-01-07 20:10:00,
2013-01-07 15:15:00,69.8,33.4,30.18,ENE,68,6.3,6.3,26,0.00,,,60.49,VWS V14.01,2013-01-07 20:15:00,
2013-01-07 15:19:00,70.0,33.5,30.18,ENE,68,5.8,7.6,26,0.00,,,60.49,VWS V14.01,2013-01-07 20:19:00,
2013-01-07 15:24:00,69.6,33.2,30.18,ENE,68,6.3,8.1,26,0.00,,,60.49,VWS V14.01,2013-01-07 20:24:00,
2013-01-07 15:29:00,69.4,32.1,30.18,ENE,68,6.0,10.7,25,0.00,,,60.49,VWS V14.01,2013-01-07 20:29:00,
2013-01-07 15:34:00,69.1,32.8,30.18,ENE,68,6.9,6.9,26,0.00,,,60.49,VWS V14.01,2013-01-07 20:34:00,
2013-01-07 15:39:00,68.9,32.6,30.18,ENE,68,5.4,8.7,26,0.00,,,60.49,VWS V14.01,2013-01-07 20:39:00,
2013-01-07 15:44:00,68.7,32.5,30.18,NNE,22,10.3,10.3,26,0.00,,,60.49,VWS V14.01,2013-01-07 20:44:00,
2013-01-07 15:49:00,68.7,32.5,30.18,ENE,68,4.3,4.3,26,0.00,,,60.49,VWS V14.01,2013-01-07 20:49:00,
2013-01-07 15:54:00,68.7,32.5,30.18,ENE,68,6.0,10.7,26,0.00,,,60.49,VWS V14.01,2013-01-07 20:54:00,
2013-01-07 15:59:00,68.5,32.3,30.18,ENE,68,6.3,7.2,26,0.00,,,60.49,VWS V14.01,2013-01-07 20:59:00,
2013-01-07 16:04:00,68.4,32.2,30.18,ENE,68,5.6,5.6,26,0.00,,,60.49,VWS V14.01,2013-01-07 21:04:00,
2013-01-07 16:09:00,68.2,32.0,30.18,ENE,68,8.1,8.1,26,0.00,,,60.49,VWS V14.01,2013-01-07 21:09:00,
2013-01-07 16:14:00,67.6,35.1,30.18,ENE,68,7.4,7.4,30,0.00,,,60.49,VWS V14.01,2013-01-07 21:14:00,
2013-01-07 16:19:00,66.9,36.9,30.18,NNE,22,5.4,6.0,33,0.00,,,60.49,VWS V14.01,2013-01-07 21:19:00,
2013-01-07 16:24:00,66.0,36.9,30.18,ENE,68,3.4,3.6,34,0.00,,,60.49,VWS V14.01,2013-01-07 21:24:00,
2013-01-07 16:29:00,65.7,37.3,30.18,ENE,68,5.4,5.4,35,0.00,,,60.49,VWS V14.01,2013-01-07 21:29:00,
2013-01-07 16:34:00,65.5,37.1,30.18,ENE,68,7.8,7.8,35,0.00,,,60.49,VWS V14.01,2013-01-07 21:34:00,
2013-01-07 16:39:00,65.7,37.3,30.18,NNE,22,6.0,6.0,35,0.00,,,60.49,VWS V14.01,2013-01-07 21:39:00,
2013-01-07 16:44:00,65.5,37.8,30.18,ENE,68,3.6,4.3,36,0.00,,,60.49,VWS V14.01,2013-01-07 21:44:00,
2013-01-07 16:49:00,64.8,39.2,30.18,NE,45,4.0,5.6,39,0.00,,,60.49,VWS V14.01,2013-01-07 21:49:00,
2013-01-07 16:54:00,64.4,40.2,30.18,ENE,68,4.9,4.9,41,0.00,,,60.49,VWS V14.01,2013-01-07 21:54:00,
2013-01-07 16:59:00,64.2,41.3,30.18,ENE,68,4.9,7.4,43,0.00,,,60.49,VWS V14.01,2013-01-07 21:59:00,
2013-01-07 17:04:00,63.9,41.0,30.18,ENE,68,4.0,5.8,43,0.00,,,60.49,VWS V14.01,2013-01-07 22:04:00,
2013-01-07 17:09:00,63.7,41.4,30.18,NE,45,3.8,3.8,44,0.00,,,60.49,VWS V14.01,2013-01-07 22:09:00,
2013-01-07 17:14:00,63.5,42.4,30.18,NE,45,5.8,7.2,46,0.00,,,60.49,VWS V14.01,2013-01-07 22:14:00,
2013-01-07 17:19:00,63.3,42.2,30.18,NNE,22,5.8,5.8,46,0.00,,,60.49,VWS V14.01,2013-01-07 22:19:00,
2013-01-07 17:24:00,63.1,42.6,30.18,ENE,68,7.4,7.4,47,0.00,,,60.49,VWS V14.01,2013-01-07 22:24:00,
2013-01-07 17:29:00,63.3,42.8,30.18,ENE,68,5.6,6.3,47,0.00,,,60.49,VWS V14.01,2013-01-07 22:29:00,
2013-01-07 17:34:00,63.1,42.6,30.21,NNE,22,4.3,4.7,47,0.00,,,60.49,VWS V14.01,2013-01-07 22:34:00,
2013-01-07 17:39:00,63.1,42.6,30.21,ENE,68,4.0,4.7,47,0.00,,,60.49,VWS V14.01,2013-01-07 22:39:00,
2013-01-07 17:44:00,63.0,43.0,30.21,NNE,22,5.4,5.4,48,0.00,,,60.49,VWS V14.01,2013-01-07 22:44:00,
2013-01-07 17:49:00,63.0,43.5,30.24,NNE,22,3.1,4.3,49,0.05,,,60.54,VWS V14.01,2013-01-07 22:49:00,
2013-01-07 17:54:00,62.8,43.9,30.24,NNE,22,4.3,4.3,50,0.05,,,60.54,VWS V14.01,2013-01-07 22:54:00,
2013-01-07 17:59:00,62.8,44.4,30.24,NNE,22,4.9,5.6,51,0.05,,,60.54,VWS V14.01,2013-01-07 22:59:00,
2013-01-07 18:04:00,62.8,44.4,30.24,North,0,5.4,6.5,51,0.05,,,60.54,VWS V14.01,2013-01-07 23:04:00,
2013-01-07 18:09:00,62.8,44.4,30.21,East,90,3.4,6.3,51,0.05,,,60.54,VWS V14.01,2013-01-07 23:09:00,
2013-01-07 18:14:00,62.8,44.9,30.21,ENE,68,5.8,6.0,52,0.05,,,60.54,VWS V14.01,2013-01-07 23:14:00,
2013-01-07 18:19:00,62.6,44.8,30.21,ENE,68,4.9,5.4,52,0.05,,,60.54,VWS V14.01,2013-01-07 23:19:00,
2013-01-07 18:24:00,62.4,45.6,30.21,NNE,22,5.6,6.0,54,0.05,,,60.54,VWS V14.01,2013-01-07 23:24:00,
2013-01-07 18:29:00,62.2,46.8,30.21,NE,45,5.6,6.0,57,0.05,,,60.54,VWS V14.01,2013-01-07 23:29:00,
2013-01-07 18:34:00,61.9,47.4,30.18,North,0,5.6,5.6,59,0.05,,,60.54,VWS V14.01,2013-01-07 23:34:00,
2013-01-07 18:39:00,61.7,48.1,30.18,NNE,22,5.6,7.4,61,0.05,,,60.54,VWS V14.01,2013-01-07 23:39:00,
2013-01-07 18:44:00,61.3,49.1,30.18,NNE,22,11.0,11.0,64,0.09,,,60.58,VWS V14.01,2013-01-07 23:44:00,
2013-01-07 18:49:00,61.3,50.3,30.21,North,0,7.8,7.8,67,0.04,,,60.58,VWS V14.01,2013-01-07 23:49:00,
2013-01-07 18:54:00,61.2,50.9,30.21,NNE,22,5.4,8.1,69,0.04,,,60.58,VWS V14.01,2013-01-07 23:54:00,
2013-01-07 18:59:00,61.2,51.3,30.21,ENE,68,4.0,4.0,70,0.04,,,60.58,VWS V14.01,2013-01-07 23:59:00,
2013-01-07 19:05:00,61.2,51.7,30.21,NNE,22,9.8,10.5,71,0.04,,,60.58,VWS V14.01,2013-01-08 00:05:00,
2013-01-07 19:10:00,61.2,52.5,30.21,NE,45,6.3,10.7,73,0.04,,,60.58,VWS V14.01,2013-01-08 00:10:00,
2013-01-07 19:15:00,61.0,52.3,30.21,ENE,68,6.3,6.5,73,0.04,,,60.58,VWS V14.01,2013-01-08 00:15:00,
2013-01-07 19:20:00,61.0,53.0,30.21,NE,45,6.5,6.5,75,0.08,,,60.62,VWS V14.01,2013-01-08 00:20:00,
2013-01-07 19:25:00,61.0,53.4,30.18,NNE,22,4.3,4.3,76,0.08,,,60.62,VWS V14.01,2013-01-08 00:25:00,
2013-01-07 19:30:00,61.2,53.9,30.18,NNE,22,4.3,9.8,77,0.08,,,60.62,VWS V14.01,2013-01-08 00:30:00,
2013-01-07 19:35:00,61.2,53.9,30.21,NNE,22,6.0,6.0,77,0.08,,,60.62,VWS V14.01,2013-01-08 00:35:00,
2013-01-07 19:40:00,61.2,54.3,30.21,NNE,22,4.5,5.6,78,0.08,,,60.62,VWS V14.01,2013-01-08 00:40:00,
2013-01-07 19:45:00,61.3,54.4,30.21,North,0,4.7,10.7,78,0.04,,,60.62,VWS V14.01,2013-01-08 00:45:00,
2013-01-07 19:50:00,61.3,54.4,30.21,NNE,22,3.1,5.6,78,0.04,,,60.62,VWS V14.01,2013-01-08 00:50:00,
2013-01-07 19:55:00,61.3,54.4,30.21,NNE,22,3.6,8.5,78,0.04,,,60.62,VWS V14.01,2013-01-08 00:55:00,
2013-01-07 20:00:00,61.5,54.6,30.21,ENE,68,4.3,5.8,78,0.04,,,60.62,VWS V14.01,2013-01-08 01:00:00,
2013-01-07 20:05:00,61.5,54.6,30.24,North,0,3.1,6.7,78,0.04,,,60.62,VWS V14.01,2013-01-08 01:05:00,
2013-01-07 20:10:00,61.5,54.6,30.24,North,0,4.0,6.0,78,0.04,,,60.62,VWS V14.01,2013-01-08 01:10:00,
2013-01-07 20:15:00,61.5,54.6,30.24,ENE,68,3.8,3.8,78,0.04,,,60.62,VWS V14.01,2013-01-08 01:15:00,
2013-01-07 20:20:00,61.5,54.6,30.21,NE,45,3.4,6.3,78,0.00,,,60.62,VWS V14.01,2013-01-08 01:20:00,
2013-01-07 20:25:00,61.5,54.6,30.21,ENE,68,3.6,5.4,78,0.00,,,60.62,VWS V14.01,2013-01-08 01:25:00,
2013-01-07 20:30:00,61.7,54.8,30.21,NNE,22,5.6,6.3,78,0.00,,,60.62,VWS V14.01,2013-01-08 01:30:00,
2013-01-07 20:35:00,61.7,55.1,30.21,NNE,22,5.6,5.6,79,0.00,,,60.62,VWS V14.01,2013-01-08 01:35:00,
2013-01-07 20:40:00,61.7,55.1,30.21,NNE,22,3.1,3.8,79,0.00,,,60.62,VWS V14.01,2013-01-08 01:40:00,
2013-01-07 20:45:00,61.7,55.1,30.21,NNE,22,5.4,8.1,79,0.00,,,60.62,VWS V14.01,2013-01-08 01:45:00,
2013-01-07 20:50:00,61.7,55.1,30.21,NNE,22,6.5,6.9,79,0.00,,,60.62,VWS V14.01,2013-01-08 01:50:00,
2013-01-07 20:55:00,61.7,55.1,30.21,NNE,22,4.3,4.3,79,0.00,,,60.62,VWS V14.01,2013-01-08 01:55:00,
2013-01-07 21:00:00,61.7,55.1,30.21,NNE,22,7.4,7.4,79,0.00,,,60.62,VWS V14.01,2013-01-08 02:00:00,
2013-01-07 21:05:00,61.7,55.1,30.18,North,0,3.1,4.3,79,0.00,,,60.62,VWS V14.01,2013-01-08 02:05:00,
2013-01-07 21:10:00,61.7,55.1,30.18,ENE,68,3.4,4.3,79,0.00,,,60.62,VWS V14.01,2013-01-08 02:10:00,
2013-01-07 21:15:00,61.7,55.1,30.18,NE,45,2.7,2.9,79,0.00,,,60.62,VWS V14.01,2013-01-08 02:15:00,
2013-01-07 21:20:00,61.7,55.1,30.21,ENE,68,4.3,5.4,79,0.00,,,60.62,VWS V14.01,2013-01-08 02:20:00,
2013-01-07 21:25:00,61.7,55.1,30.21,NNE,22,7.4,7.4,79,0.00,,,60.62,VWS V14.01,2013-01-08 02:25:00,
2013-01-07 21:30:00,61.7,55.1,30.21,NE,45,7.6,7.6,79,0.00,,,60.62,VWS V14.01,2013-01-08 02:30:00,
2013-01-07 21:35:00,61.7,55.1,30.21,NNE,22,4.9,4.9,79,0.00,,,60.62,VWS V14.01,2013-01-08 02:35:00,
2013-01-07 21:40:00,61.9,55.3,30.21,ENE,68,4.3,5.8,79,0.00,,,0.00,VWS V14.01,2013-01-08 02:40:00,
2013-01-07 21:45:00,61.9,55.3,30.21,ENE,68,6.5,6.5,79,0.00,,,0.00,VWS V14.01,2013-01-08 02:45:00,
2013-01-07 21:50:00,61.9,55.3,30.18,ENE,68,7.2,7.2,79,0.00,,,0.00,VWS V14.01,2013-01-08 02:50:00,
2013-01-07 21:55:00,61.9,55.3,30.18,ENE,68,5.4,5.8,79,0.00,,,0.00,VWS V14.01,2013-01-08 02:55:00,
2013-01-07 22:00:00,61.9,55.3,30.18,NNE,22,7.4,7.4,79,0.00,,,0.00,VWS V14.01,2013-01-08 03:00:00,
2013-01-07 22:05:00,61.9,55.3,30.21,NNE,22,7.8,7.8,79,0.00,,,0.00,VWS V14.01,2013-01-08 03:05:00,
2013-01-07 22:10:00,61.7,55.1,30.21,ENE,68,3.6,4.0,79,0.00,,,0.00,VWS V14.01,2013-01-08 03:10:00,
2013-01-07 22:15:00,61.7,55.1,30.21,ENE,68,4.0,6.3,79,0.00,,,0.00,VWS V14.01,2013-01-08 03:15:00,
2013-01-07 22:20:00,61.7,55.1,30.21,North,0,6.3,6.3,79,0.00,,,0.00,VWS V14.01,2013-01-08 03:20:00,
2013-01-07 22:25:00,61.7,55.1,30.21,NNE,22,3.8,3.8,79,0.00,,,0.00,VWS V14.01,2013-01-08 03:25:00,
2013-01-07 22:30:00,61.7,55.1,30.21,NE,45,4.9,4.9,79,0.00,,,0.00,VWS V14.01,2013-01-08 03:30:00,
2013-01-07 22:36:00,61.7,55.1,30.21,NNE,22,5.4,5.6,79,0.00,,,0.00,VWS V14.01,2013-01-08 03:36:00,
2013-01-07 22:41:00,61.7,55.1,30.21,NE,45,3.8,4.3,79,0.00,,,0.00,VWS V14.01,2013-01-08 03:41:00,
2013-01-07 22:46:00,61.7,55.1,30.21,NNW,338,2.5,4.0,79,0.00,,,0.00,VWS V14.01,2013-01-08 03:46:00,
2013-01-07 22:51:00,61.7,55.1,30.21,NNE,22,5.6,7.8,79,0.00,,,0.00,VWS V14.01,2013-01-08 03:51:00,
2013-01-07 22:56:00,61.7,55.1,30.21,North,0,3.6,6.5,79,0.00,,,0.00,VWS V14.01,2013-01-08 03:56:00,
2013-01-07 23:01:00,61.7,54.8,30.21,ENE,68,2.5,4.9,78,0.00,,,0.00,VWS V14.01,2013-01-08 04:01:00,
2013-01-07 23:06:00,61.5,54.6,30.21,NNE,22,2.7,3.8,78,0.00,,,0.00,VWS V14.01,2013-01-08 04:06:00,
2013-01-07 23:11:00,61.5,54.6,30.21,NNE,22,2.5,4.7,78,0.00,,,0.00,VWS V14.01,2013-01-08 04:11:00,
2013-01-07 23:16:00,61.7,54.8,30.21,ENE,68,2.9,4.0,78,0.00,,,0.00,VWS V14.01,2013-01-08 04:16:00,
2013-01-07 23:21:00,61.7,54.8,30.21,NNE,22,2.5,2.7,78,0.00,,,0.00,VWS V14.01,2013-01-08 04:21:00,
2013-01-07 23:26:00,61.7,54.8,30.21,NNE,22,2.7,4.3,78,0.00,,,0.00,VWS V14.01,2013-01-08 04:26:00,
2013-01-07 23:31:00,61.7,54.8,30.21,NNE,22,3.1,3.1,78,0.00,,,0.00,VWS V14.01,2013-01-08 04:31:00,
2013-01-07 23:36:00,61.7,54.8,30.21,ENE,68,4.0,5.6,78,0.00,,,0.00,VWS V14.01,2013-01-08 04:36:00,
2013-01-07 23:41:00,61.7,54.8,30.21,NNE,22,2.9,2.9,78,0.00,,,0.00,VWS V14.01,2013-01-08 04:41:00,
2013-01-07 23:46:00,61.7,54.8,30.21,ENE,68,5.6,5.6,78,0.00,,,0.00,VWS V14.01,2013-01-08 04:46:00,
2013-01-07 23:51:00,61.7,54.8,30.21,ENE,68,3.1,3.1,78,0.00,,,0.00,VWS V14.01,2013-01-08 04:51:00,
2013-01-07 23:56:00,61.7,54.8,30.21,NNE,22,3.6,3.6,78,0.00,,,0.00,VWS V14.01,2013-01-08 04:56:00,